Time,TemperatureF,DewpointF,PressureIn,WindDirection,WindDirectionDegrees,WindSpeedMPH,WindSpeedGustMPH,Humidity,HourlyPrecipIn,Conditions,Clouds,dailyrainin,SoftwareType,DateUTC
2013-07-30 00:02:00,48.0,42.1,29.68,WNW,292,0.0,0.0,80,0.00,CLR,OVC,0.00,WeatherDisplay:10.37,2013-07-29 14:02:00,
2013-07-30 00:07:00,48.2,42.6,29.68,NW,315,0.0,0.0,81,0.00,CLR,OVC,0.00,WeatherDisplay:10.37,2013-07-29 14:07:00,
2013-07-30 00:12:00,48.2,42.3,29.68,WNW,292,0.0,0.0,80,0.00,CLR,OVC,0.00,WeatherDisplay:10.37,2013-07-29 14:12:00,
2013-07-30 00:17:00,48.2,42.6,29.65,WNW,292,0.0,0.0,81,0.00,CLR,OVC,0.00,WeatherDisplay:10.37,2013-07-29 14:17:00,
2013-07-30 00:22:00,48.2,42.6,29.65,West,270,0.0,0.0,81,0.00,CLR,OVC,0.00,WeatherDisplay:10.37,2013-07-29 14:22:00,
2013-07-30 00:27:00,48.2,42.6,29.65,WNW,292,0.0,0.0,81,0.00,CLR,OVC,0.00,WeatherDisplay:10.37,2013-07-29 14:27:00,
2013-07-30 00:32:00,48.2,42.6,29.65,WNW,292,0.0,0.0,81,0.00,CLR,OVC,0.00,WeatherDisplay:10.37,2013-07-29 14:32:00,
2013-07-30 00:37:00,48.2,43.0,29.65,WNW,292,0.0,0.0,82,0.00,CLR,OVC,0.00,WeatherDisplay:10.37,2013-07-29 14:37:00,
2013-07-30 00:42:00,48.4,43.1,29.65,WNW,292,0.0,0.0,82,0.00,CLR,OVC,0.00,WeatherDisplay:10.37,2013-07-29 14:42:00,
2013-07-30 00:47:00,48.4,43.1,29.68,WNW,292,0.0,0.0,82,0.00,CLR,OVC,0.00,WeatherDisplay:10.37,2013-07-29 14:47:00,
2013-07-30 00:52:00,48.4,43.1,29.68,West,270,0.0,0.0,82,0.00,CLR,OVC,0.00,WeatherDisplay:10.37,2013-07-29 14:52:00,
2013-07-30 00:57:00,48.4,42.8,29.68,West,270,0.0,0.0,81,0.00,CLR,OVC,0.00,WeatherDisplay:10.37,2013-07-29 14:57:00,
2013-07-30 01:02:00,48.4,43.1,29.68,West,270,0.0,0.0,82,0.00,CLR,OVC,0.00,WeatherDisplay:10.37,2013-07-29 15:02:00,
2013-07-30 01:07:00,48.4,43.1,29.68,West,270,0.0,0.0,82,0.00,CLR,OVC,0.00,WeatherDisplay:10.37,2013-07-29 15:07:00,
2013-07-30 01:12:00,48.4,43.1,29.68,SW,225,0.0,0.0,82,0.00,CLR,OVC,0.00,WeatherDisplay:10.37,2013-07-29 15:12:00,
2013-07-30 01:17:00,48.4,43.1,29.68,SW,225,0.0,0.0,82,0.00,CLR,OVC,0.00,WeatherDisplay:10.37,2013-07-29 15:17:00,
2013-07-30 01:22:00,48.6,43.3,29.68,WNW,292,0.0,0.0,82,0.00,CLR,OVC,0.00,WeatherDisplay:10.37,2013-07-29 15:22:00,
2013-07-30 01:27:00,48.6,43.3,29.68,WNW,292,0.0,0.0,82,0.00,CLR,OVC,0.00,WeatherDisplay:10.37,2013-07-29 15:27:00,
2013-07-30 01:33:00,48.6,43.3,29.68,West,270,0.0,0.0,82,0.00,CLR,OVC,0.00,WeatherDisplay:10.37,2013-07-29 15:33:00,
2013-07-30 01:38:00,48.6,43.3,29.68,WNW,292,0.0,0.0,82,0.00,CLR,OVC,0.00,WeatherDisplay:10.37,2013-07-29 15:38:00,
2013-07-30 01:43:00,48.6,43.3,29.68,West,270,0.0,0.0,82,0.00,CLR,OVC,0.00,WeatherDisplay:10.37,2013-07-29 15:43:00,
2013-07-30 01:48:00,48.6,43.3,29.68,West,270,0.0,0.0,82,0.00,CLR,OVC,0.00,WeatherDisplay:10.37,2013-07-29 15:48:00,
2013-07-30 01:53:00,48.6,43.3,29.68,West,270,0.0,0.0,82,0.00,CLR,OVC,0.00,WeatherDisplay:10.37,2013-07-29 15:53:00,
2013-07-30 01:58:00,48.6,43.3,29.68,ESE,112,0.0,0.0,82,0.00,CLR,OVC,0.00,WeatherDisplay:10.37,2013-07-29 15:58:00,
2013-07-30 02:03:00,48.4,43.1,29.65,ENE,68,0.0,0.0,82,0.00,CLR,OVC,0.00,WeatherDisplay:10.37,2013-07-29 16:03:00,
2013-07-30 02:08:00,48.2,43.0,29.65,ENE,68,0.0,0.0,82,0.00,CLR,OVC,0.00,WeatherDisplay:10.37,2013-07-29 16:08:00,
2013-07-30 02:13:00,48.2,43.0,29.65,East,90,0.0,0.0,82,0.00,CLR,OVC,0.00,WeatherDisplay:10.37,2013-07-29 16:13:00,
2013-07-30 02:18:00,48.2,42.6,29.68,West,270,0.0,0.0,81,0.00,CLR,OVC,0.00,WeatherDisplay:10.37,2013-07-29 16:18:00,
2013-07-30 02:23:00,48.0,42.8,29.68,West,270,0.0,0.0,82,0.00,CLR,OVC,0.00,WeatherDisplay:10.37,2013-07-29 16:23:00,
2013-07-30 02:28:00,48.0,42.8,29.68,WSW,248,1.2,0.0,82,0.00,CLR,OVC,0.00,WeatherDisplay:10.37,2013-07-29 16:28:00,
2013-07-30 02:33:00,48.0,42.8,29.68,SSW,202,0.0,0.0,82,0.00,CLR,OVC,0.00,WeatherDisplay:10.37,2013-07-29 16:33:00,
2013-07-30 02:38:00,48.0,42.8,29.68,West,270,0.0,0.0,82,0.00,CLR,OVC,0.00,WeatherDisplay:10.37,2013-07-29 16:38:00,
2013-07-30 02:43:00,48.0,42.8,29.68,West,270,0.0,0.0,82,0.00,CLR,OVC,0.00,WeatherDisplay:10.37,2013-07-29 16:43:00,
2013-07-30 02:48:00,48.0,42.8,29.68,West,270,0.0,0.0,82,0.00,CLR,OVC,0.00,WeatherDisplay:10.37,2013-07-29 16:48:00,
2013-07-30 02:54:00,47.8,42.9,29.68,ESE,112,0.0,0.0,83,0.00,CLR,OVC,0.00,WeatherDisplay:10.37,2013-07-29 16:54:00,
2013-07-30 02:59:00,47.8,42.9,29.68,ESE,112,0.0,0.0,83,0.00,CLR,OVC,0.00,WeatherDisplay:10.37,2013-07-29 16:59:00,
2013-07-30 03:04:00,47.8,42.9,29.68,ESE,112,0.0,0.0,83,0.00,CLR,OVC,0.00,WeatherDisplay:10.37,2013-07-29 17:04:00,
2013-07-30 03:09:00,47.8,42.9,29.68,ESE,112,0.0,0.0,83,0.00,CLR,OVC,0.00,WeatherDisplay:10.37,2013-07-29 17:09:00,
2013-07-30 03:14:00,47.8,42.9,29.65,WNW,292,0.0,0.0,83,0.00,CLR,OVC,0.00,WeatherDisplay:10.37,2013-07-29 17:14:00,
2013-07-30 03:19:00,47.8,42.9,29.65,WNW,292,0.0,0.0,83,0.00,CLR,OVC,0.00,WeatherDisplay:10.37,2013-07-29 17:19:00,
2013-07-30 03:24:00,47.8,42.9,29.65,WNW,292,0.0,0.0,83,0.00,CLR,OVC,0.00,WeatherDisplay:10.37,2013-07-29 17:24:00,
2013-07-30 03:29:00,47.8,42.9,29.62,WNW,292,0.0,0.0,83,0.00,CLR,OVC,0.00,WeatherDisplay:10.37,2013-07-29 17:29:00,
2013-07-30 03:34:00,47.8,42.9,29.62,WNW,292,0.0,0.0,83,0.00,CLR,OVC,0.00,WeatherDisplay:10.37,2013-07-29 17:34:00,
2013-07-30 03:39:00,47.8,42.9,29.62,WNW,292,0.0,0.0,83,0.00,CLR,OVC,0.00,WeatherDisplay:10.37,2013-07-29 17:39:00,
2013-07-30 03:44:00,47.8,42.9,29.62,WNW,292,0.0,0.0,83,0.00,CLR,OVC,0.00,WeatherDisplay:10.37,2013-07-29 17:44:00,
2013-07-30 03:49:00,47.8,42.9,29.62,WNW,292,0.0,0.0,83,0.00,CLR,OVC,0.00,WeatherDisplay:10.37,2013-07-29 17:49:00,
2013-07-30 03:54:00,47.8,42.9,29.62,NNE,22,0.0,0.0,83,0.00,CLR,OVC,0.00,WeatherDisplay:10.37,2013-07-29 17:54:00,
2013-07-30 03:59:00,47.8,43.2,29.62,NE,45,0.0,0.0,84,0.00,CLR,OVC,0.00,WeatherDisplay:10.37,2013-07-29 17:59:00,
2013-07-30 04:04:00,47.7,43.1,29.62,ENE,68,0.0,0.0,84,0.00,CLR,OVC,0.00,WeatherDisplay:10.37,2013-07-29 18:04:00,
2013-07-30 04:09:00,47.7,43.1,29.62,ESE,112,0.0,0.0,84,0.00,CLR,OVC,0.00,WeatherDisplay:10.37,2013-07-29 18:09:00,
2013-07-30 04:14:00,47.7,43.1,29.59,ESE,112,0.0,0.0,84,0.00,CLR,OVC,0.00,WeatherDisplay:10.37,2013-07-29 18:14:00,
2013-07-30 04:19:00,47.7,43.1,29.59,ESE,112,0.0,0.0,84,0.00,CLR,OVC,0.00,WeatherDisplay:10.37,2013-07-29 18:19:00,
2013-07-30 04:24:00,47.7,43.1,29.59,ESE,112,0.0,0.0,84,0.00,CLR,OVC,0.00,WeatherDisplay:10.37,2013-07-29 18:24:00,
2013-07-30 04:29:00,47.7,43.1,29.62,ESE,112,0.0,0.0,84,0.00,CLR,OVC,0.00,WeatherDisplay:10.37,2013-07-29 18:29:00,
2013-07-30 04:35:00,47.7,43.1,29.62,ESE,112,0.0,0.0,84,0.00,CLR,OVC,0.00,WeatherDisplay:10.37,2013-07-29 18:35:00,
2013-07-30 04:40:00,47.5,42.9,29.62,ESE,112,0.0,0.0,84,0.00,CLR,OVC,0.00,WeatherDisplay:10.37,2013-07-29 18:40:00,
2013-07-30 04:45:00,47.5,42.9,29.62,West,270,2.0,0.0,84,0.00,CLR,OVC,0.00,WeatherDisplay:10.37,2013-07-29 18:45:00,
2013-07-30 04:50:00,47.5,42.9,29.62,West,270,2.3,2.3,84,0.00,CLR,OVC,0.00,WeatherDisplay:10.37,2013-07-29 18:50:00,
2013-07-30 04:55:00,47.5,42.9,29.62,SSE,158,0.0,0.0,84,0.00,CLR,OVC,0.00,WeatherDisplay:10.37,2013-07-29 18:55:00,
2013-07-30 05:00:00,47.5,42.9,29.59,SSE,158,0.0,0.0,84,0.00,CLR,OVC,0.00,WeatherDisplay:10.37,2013-07-29 19:00:00,
2013-07-30 05:05:00,47.7,43.1,29.59,SSE,158,0.0,0.0,84,0.00,CLR,OVC,0.00,WeatherDisplay:10.37,2013-07-29 19:05:00,
2013-07-30 05:10:00,47.7,43.4,29.59,SSE,158,0.0,0.0,85,0.00,CLR,OVC,0.00,WeatherDisplay:10.37,2013-07-29 19:10:00,
2013-07-30 05:15:00,47.7,43.4,29.62,NNE,22,0.0,0.0,85,0.00,CLR,OVC,0.00,WeatherDisplay:10.37,2013-07-29 19:15:00,
2013-07-30 05:20:00,47.7,43.4,29.62,NNE,22,0.0,0.0,85,0.00,CLR,OVC,0.00,WeatherDisplay:10.37,2013-07-29 19:20:00,
2013-07-30 05:25:00,47.7,43.4,29.62,NE,45,0.0,0.0,85,0.00,CLR,OVC,0.00,WeatherDisplay:10.37,2013-07-29 19:25:00,
2013-07-30 05:30:00,47.7,43.4,29.62,ESE,112,1.6,1.6,85,0.00,CLR,OVC,0.00,WeatherDisplay:10.37,2013-07-29 19:30:00,
2013-07-30 05:35:00,47.5,43.2,29.62,ESE,112,0.0,0.0,85,0.00,CLR,OVC,0.00,WeatherDisplay:10.37,2013-07-29 19:35:00,
2013-07-30 05:40:00,47.5,42.9,29.62,West,270,0.0,0.0,84,0.00,CLR,OVC,0.00,WeatherDisplay:10.37,2013-07-29 19:40:00,
2013-07-30 05:45:00,47.3,42.7,29.59,West,270,0.0,0.0,84,0.00,CLR,OVC,0.00,WeatherDisplay:10.37,2013-07-29 19:45:00,
2013-07-30 05:50:00,47.3,42.4,29.59,WNW,292,0.0,0.0,83,0.00,CLR,OVC,0.00,WeatherDisplay:10.37,2013-07-29 19:50:00,
2013-07-30 05:55:00,47.3,42.4,29.59,WSW,248,0.0,0.0,83,0.00,CLR,OVC,0.00,WeatherDisplay:10.37,2013-07-29 19:55:00,
2013-07-30 06:00:00,47.1,42.2,29.62,SSW,202,0.0,0.0,83,0.00,CLR,OVC,0.00,WeatherDisplay:10.37,2013-07-29 20:00:00,
2013-07-30 06:06:00,47.1,42.2,29.62,West,270,0.0,0.0,83,0.00,CLR,OVC,0.00,WeatherDisplay:10.37,2013-07-29 20:06:00,
2013-07-30 06:11:00,46.9,42.0,29.62,WNW,292,0.0,0.0,83,0.00,CLR,OVC,0.00,WeatherDisplay:10.37,2013-07-29 20:11:00,
2013-07-30 06:16:00,46.8,41.9,29.62,WSW,248,2.3,0.0,83,0.00,CLR,OVC,0.00,WeatherDisplay:10.37,2013-07-29 20:16:00,
2013-07-30 06:21:00,46.6,41.4,29.62,West,270,1.2,0.0,82,0.00,CLR,OVC,0.00,WeatherDisplay:10.37,2013-07-29 20:21:00,
2013-07-30 06:26:00,46.4,41.2,29.62,SE,135,0.0,0.0,82,0.00,CLR,OVC,0.00,WeatherDisplay:10.37,2013-07-29 20:26:00,
2013-07-30 06:31:00,46.2,41.3,29.62,SSE,158,0.0,0.0,83,0.00,CLR,OVC,0.00,WeatherDisplay:10.37,2013-07-29 20:31:00,
2013-07-30 06:36:00,46.2,41.0,29.62,SSW,202,0.0,0.0,82,0.00,CLR,OVC,0.00,WeatherDisplay:10.37,2013-07-29 20:36:00,
2013-07-30 06:41:00,46.2,41.0,29.62,SSW,202,0.0,0.0,82,0.00,CLR,OVC,0.00,WeatherDisplay:10.37,2013-07-29 20:41:00,
2013-07-30 06:46:00,46.2,41.0,29.65,SSW,202,0.0,0.0,82,0.00,CLR,OVC,0.00,WeatherDisplay:10.37,2013-07-29 20:46:00,
2013-07-30 06:52:00,46.2,41.3,29.65,West,270,0.0,0.0,83,0.00,CLR,OVC,0.00,WeatherDisplay:10.37,2013-07-29 20:52:00,
2013-07-30 06:56:00,46.2,41.3,29.65,NW,315,0.0,0.0,83,0.00,CLR,OVC,0.00,WeatherDisplay:10.37,2013-07-29 20:56:00,
2013-07-30 07:02:00,46.2,41.7,29.65,NW,315,0.0,0.0,84,0.00,CLR,OVC,0.00,WeatherDisplay:10.37,2013-07-29 21:02:00,
2013-07-30 07:07:00,46.0,41.2,29.65,NW,315,0.0,0.0,83,0.00,CLR,OVC,0.00,WeatherDisplay:10.37,2013-07-29 21:07:00,
2013-07-30 07:12:00,46.0,41.2,29.65,South,180,0.0,0.0,83,0.00,CLR,OVC,0.00,WeatherDisplay:10.37,2013-07-29 21:12:00,
2013-07-30 07:17:00,46.0,41.5,29.65,ESE,112,0.0,0.0,84,0.00,CLR,OVC,0.00,WeatherDisplay:10.37,2013-07-29 21:17:00,
2013-07-30 07:22:00,46.2,41.7,29.65,ESE,112,0.0,0.0,84,0.00,CLR,OVC,0.00,WeatherDisplay:10.37,2013-07-29 21:22:00,
2013-07-30 07:27:00,46.4,41.8,29.65,North,0,0.0,0.0,84,0.00,CLR,OVC,0.00,WeatherDisplay:10.37,2013-07-29 21:27:00,
2013-07-30 07:32:00,46.4,42.1,29.65,North,0,0.0,0.0,85,0.00,CLR,OVC,0.00,WeatherDisplay:10.37,2013-07-29 21:32:00,
2013-07-30 07:37:00,46.6,42.3,29.65,WNW,292,0.0,0.0,85,0.00,CLR,OVC,0.00,WeatherDisplay:10.37,2013-07-29 21:37:00,
2013-07-30 07:42:00,46.6,42.3,29.65,WNW,292,0.0,0.0,85,0.00,CLR,OVC,0.00,WeatherDisplay:10.37,2013-07-29 21:42:00,
2013-07-30 07:47:00,46.6,42.3,29.68,WNW,292,0.0,0.0,85,0.00,CLR,OVC,0.00,WeatherDisplay:10.37,2013-07-29 21:47:00,
2013-07-30 07:52:00,46.8,42.5,29.68,West,270,2.3,2.3,85,0.00,CLR,OVC,0.00,WeatherDisplay:10.37,2013-07-29 21:52:00,
2013-07-30 07:57:00,46.9,42.7,29.68,West,270,0.0,0.0,85,0.00,CLR,OVC,0.00,WeatherDisplay:10.37,2013-07-29 21:57:00,
2013-07-30 08:02:00,47.1,42.8,29.68,NE,45,0.0,0.0,85,0.00,CLR,OVC,0.00,WeatherDisplay:10.37,2013-07-29 22:02:00,
2013-07-30 08:07:00,47.3,43.3,29.68,NE,45,0.0,0.0,86,0.00,CLR,OVC,0.00,WeatherDisplay:10.37,2013-07-29 22:07:00,
2013-07-30 08:12:00,47.7,43.7,29.68,North,0,0.0,0.0,86,0.00,CLR,OVC,0.00,WeatherDisplay:10.37,2013-07-29 22:12:00,
2013-07-30 08:18:00,48.0,44.0,29.68,NNE,22,0.0,0.0,86,0.00,CLR,OVC,0.00,WeatherDisplay:10.37,2013-07-29 22:18:00,
2013-07-30 08:23:00,48.2,44.2,29.68,NE,45,0.0,0.0,86,0.00,CLR,OVC,0.00,WeatherDisplay:10.37,2013-07-29 22:23:00,
2013-07-30 08:28:00,48.4,44.4,29.68,NE,45,0.0,0.0,86,0.00,CLR,OVC,0.00,WeatherDisplay:10.37,2013-07-29 22:28:00,
2013-07-30 08:33:00,48.7,44.7,29.68,WNW,292,1.2,1.2,86,0.00,CLR,OVC,0.00,WeatherDisplay:10.37,2013-07-29 22:33:00,
2013-07-30 08:38:00,48.9,44.9,29.68,WNW,292,1.2,0.0,86,0.00,CLR,OVC,0.00,WeatherDisplay:10.37,2013-07-29 22:38:00,
2013-07-30 08:43:00,49.1,45.1,29.68,NE,45,0.0,0.0,86,0.00,CLR,OVC,0.00,WeatherDisplay:10.37,2013-07-29 22:43:00,
2013-07-30 08:49:00,49.5,45.4,29.68,West,270,0.0,0.0,86,0.00,CLR,OVC,0.00,WeatherDisplay:10.37,2013-07-29 22:49:00,
2013-07-30 08:54:00,49.5,45.4,29.68,WNW,292,0.0,0.0,86,0.00,CLR,OVC,0.00,WeatherDisplay:10.37,2013-07-29 22:54:00,
2013-07-30 08:59:00,49.6,45.6,29.68,West,270,0.0,0.9,86,0.00,CLR,OVC,0.00,WeatherDisplay:10.37,2013-07-29 22:59:00,
2013-07-30 09:04:00,49.6,45.6,29.68,East,90,0.0,0.0,86,0.00,CLR,OVC,0.00,WeatherDisplay:10.37,2013-07-29 23:04:00,
2013-07-30 09:09:00,50.5,46.2,29.68,East,90,0.0,0.0,85,0.00,CLR,OVC,0.00,WeatherDisplay:10.37,2013-07-29 23:09:00,
2013-07-30 09:14:00,52.5,48.1,29.68,WSW,248,1.2,0.0,85,0.00,CLR,OVC,0.00,WeatherDisplay:10.37,2013-07-29 23:14:00,
2013-07-30 09:19:00,54.5,49.8,29.68,NNE,22,2.3,2.3,84,0.00,CLR,OVC,0.00,WeatherDisplay:10.37,2013-07-29 23:19:00,
2013-07-30 09:24:00,54.5,49.1,29.68,West,270,1.2,0.0,82,0.00,CLR,OVC,0.00,WeatherDisplay:10.37,2013-07-29 23:24:00,
2013-07-30 09:29:00,54.5,49.1,29.68,East,90,0.0,0.0,82,0.00,CLR,OVC,0.00,WeatherDisplay:10.37,2013-07-29 23:29:00,
2013-07-30 09:35:00,54.5,48.8,29.68,NE,45,0.0,0.0,81,0.00,CLR,OVC,0.00,WeatherDisplay:10.37,2013-07-29 23:35:00,
2013-07-30 09:40:00,54.3,48.3,29.68,WNW,292,2.4,0.0,80,0.00,CLR,OVC,0.00,WeatherDisplay:10.37,2013-07-29 23:40:00,
2013-07-30 09:45:00,54.3,47.9,29.68,WNW,294,0.0,2.0,79,0.00,CLR,OVC,0.00,WeatherDisplay:10.37,2013-07-29 23:45:00,
2013-07-30 09:50:00,54.3,47.9,29.68,WNW,292,0.0,0.0,79,0.00,CLR,OVC,0.00,WeatherDisplay:10.37,2013-07-29 23:50:00,
2013-07-30 09:55:00,54.5,48.5,29.68,ENE,68,0.0,0.0,80,0.00,CLR,OVC,0.00,WeatherDisplay:10.37,2013-07-29 23:55:00,
2013-07-30 10:00:00,55.1,49.1,29.65,East,87,0.0,0.0,80,0.00,CLR,OVC,0.00,WeatherDisplay:10.37,2013-07-30 00:00:00,
2013-07-30 10:05:00,56.5,50.4,29.65,ESE,112,0.0,0.0,80,0.00,CLR,OVC,0.00,WeatherDisplay:10.37,2013-07-30 00:05:00,
2013-07-30 10:10:00,57.6,51.1,29.65,NE,45,2.3,0.0,79,0.00,CLR,OVC,0.00,WeatherDisplay:10.37,2013-07-30 00:10:00,
2013-07-30 10:15:00,57.6,49.7,29.65,West,270,3.5,3.5,75,0.00,CLR,OVC,0.00,WeatherDisplay:10.37,2013-07-30 00:15:00,
2013-07-30 10:20:00,57.4,49.2,29.65,WNW,292,0.0,0.0,74,0.00,CLR,OVC,0.00,WeatherDisplay:10.37,2013-07-30 00:20:00,
2013-07-30 10:25:00,57.6,49.3,29.65,WNW,292,0.0,0.0,74,0.00,CLR,OVC,0.00,WeatherDisplay:10.37,2013-07-30 00:25:00,
2013-07-30 10:30:00,58.1,49.9,29.62,NW,315,0.0,0.0,74,0.00,CLR,OVC,0.00,WeatherDisplay:10.37,2013-07-30 00:30:00,
2013-07-30 10:35:00,58.8,50.5,29.62,West,270,3.3,3.3,74,0.00,CLR,OVC,0.00,WeatherDisplay:10.37,2013-07-30 00:35:00,
2013-07-30 10:40:00,59.0,50.4,29.62,NNW,338,2.3,0.0,73,0.00,CLR,OVC,0.00,WeatherDisplay:10.37,2013-07-30 00:40:00,
2013-07-30 10:45:00,59.5,50.9,29.59,SW,225,2.6,2.6,73,0.00,CLR,OVC,0.00,WeatherDisplay:10.37,2013-07-30 00:45:00,
2013-07-30 10:50:00,60.4,51.7,29.59,SE,135,2.3,2.3,73,0.00,CLR,OVC,0.00,WeatherDisplay:10.37,2013-07-30 00:50:00,
2013-07-30 10:55:00,60.8,51.7,29.59,NNW,338,0.0,0.0,72,0.00,CLR,OVC,0.00,WeatherDisplay:10.37,2013-07-30 00:55:00,
2013-07-30 11:01:00,61.5,52.4,29.59,West,270,0.0,0.0,72,0.00,CLR,OVC,0.00,WeatherDisplay:10.37,2013-07-30 01:01:00,
2013-07-30 11:06:00,62.2,51.9,29.59,ESE,112,3.1,0.0,69,0.00,CLR,OVC,0.00,WeatherDisplay:10.37,2013-07-30 01:06:00,
2013-07-30 11:11:00,63.0,52.2,29.59,WNW,292,3.8,0.0,68,0.00,CLR,OVC,0.00,WeatherDisplay:10.37,2013-07-30 01:11:00,
2013-07-30 11:16:00,63.3,51.3,29.62,NW,315,2.3,2.3,65,0.00,CLR,OVC,0.00,WeatherDisplay:10.37,2013-07-30 01:16:00,
2013-07-30 11:21:00,63.9,51.0,29.62,SW,225,3.5,3.5,63,0.00,CLR,OVC,0.00,WeatherDisplay:10.37,2013-07-30 01:21:00,
2013-07-30 11:26:00,64.0,50.8,29.62,WSW,248,4.6,4.6,62,0.00,CLR,OVC,0.00,WeatherDisplay:10.37,2013-07-30 01:26:00,
2013-07-30 11:31:00,64.2,50.0,29.59,NNW,338,4.6,4.6,60,0.00,CLR,OVC,0.00,WeatherDisplay:10.37,2013-07-30 01:31:00,
2013-07-30 11:36:00,64.6,50.8,29.59,NE,45,2.6,2.6,61,0.00,CLR,OVC,0.00,WeatherDisplay:10.37,2013-07-30 01:36:00,
2013-07-30 11:42:00,64.9,50.7,29.59,NNW,338,3.5,3.5,60,0.00,CLR,OVC,0.00,WeatherDisplay:10.37,2013-07-30 01:42:00,
2013-07-30 11:47:00,65.1,50.4,29.59,NW,315,2.4,2.4,59,0.00,CLR,OVC,0.00,WeatherDisplay:10.37,2013-07-30 01:47:00,
2013-07-30 11:52:00,65.3,49.7,29.59,West,270,2.3,2.3,57,0.00,CLR,OVC,0.00,WeatherDisplay:10.37,2013-07-30 01:52:00,
2013-07-30 11:57:00,65.5,49.8,29.59,NNW,338,1.6,1.6,57,0.00,CLR,OVC,0.00,WeatherDisplay:10.37,2013-07-30 01:57:00,
2013-07-30 12:02:00,65.7,49.5,29.56,NW,315,4.6,4.6,56,0.00,CLR,OVC,0.00,WeatherDisplay:10.37,2013-07-30 02:02:00,
2013-07-30 12:07:00,66.0,49.9,29.56,WNW,292,3.8,3.8,56,0.00,CLR,OVC,0.00,WeatherDisplay:10.37,2013-07-30 02:07:00,
2013-07-30 12:12:00,66.2,50.0,29.56,NNW,338,2.6,2.6,56,0.00,CLR,OVC,0.00,WeatherDisplay:10.37,2013-07-30 02:12:00,
2013-07-30 12:17:00,66.4,49.7,29.56,NNW,338,2.6,2.6,55,0.00,CLR,OVC,0.00,WeatherDisplay:10.37,2013-07-30 02:17:00,
2013-07-30 12:22:00,66.4,49.7,29.56,West,270,4.0,4.0,55,0.00,CLR,OVC,0.00,WeatherDisplay:10.37,2013-07-30 02:22:00,
2013-07-30 12:27:00,66.6,49.9,29.56,WNW,292,4.6,4.6,55,0.00,CLR,OVC,0.00,WeatherDisplay:10.37,2013-07-30 02:27:00,
2013-07-30 12:32:00,66.6,49.4,29.53,WNW,292,2.3,2.3,54,0.00,CLR,OVC,0.00,WeatherDisplay:10.37,2013-07-30 02:32:00,
2013-07-30 12:37:00,66.9,49.2,29.53,WNW,292,5.9,5.9,53,0.00,CLR,OVC,0.00,WeatherDisplay:10.37,2013-07-30 02:37:00,
2013-07-30 12:42:00,67.3,49.0,29.53,NW,315,4.6,4.6,52,0.00,CLR,OVC,0.00,WeatherDisplay:10.37,2013-07-30 02:42:00,
2013-07-30 12:47:00,67.6,49.9,29.56,NW,315,3.5,3.5,53,0.00,CLR,OVC,0.00,WeatherDisplay:10.37,2013-07-30 02:47:00,
2013-07-30 12:53:00,67.6,48.9,29.56,WNW,292,2.3,2.3,51,0.00,CLR,OVC,0.00,WeatherDisplay:10.37,2013-07-30 02:53:00,
2013-07-30 12:58:00,67.5,49.2,29.56,WNW,292,2.3,2.3,52,0.00,CLR,OVC,0.00,WeatherDisplay:10.37,2013-07-30 02:58:00,
2013-07-30 13:03:00,67.6,49.9,29.56,SSE,158,2.4,2.4,53,0.00,CLR,OVC,0.00,WeatherDisplay:10.37,2013-07-30 03:03:00,
2013-07-30 13:08:00,67.5,48.7,29.56,North,0,1.2,0.0,51,0.00,CLR,OVC,0.00,WeatherDisplay:10.37,2013-07-30 03:08:00,
2013-07-30 13:13:00,67.3,49.0,29.56,WNW,292,0.0,0.0,52,0.00,CLR,OVC,0.00,WeatherDisplay:10.37,2013-07-30 03:13:00,
2013-07-30 13:18:00,67.1,48.4,29.56,North,0,2.3,2.3,51,0.00,CLR,OVC,0.00,WeatherDisplay:10.37,2013-07-30 03:18:00,
2013-07-30 13:23:00,66.7,47.5,29.56,ENE,68,2.3,0.0,50,0.00,CLR,OVC,0.00,WeatherDisplay:10.37,2013-07-30 03:23:00,
2013-07-30 13:28:00,66.6,47.9,29.56,NE,45,0.0,0.0,51,0.00,CLR,OVC,0.00,WeatherDisplay:10.37,2013-07-30 03:28:00,
2013-07-30 13:34:00,66.6,47.9,29.56,South,180,1.2,0.0,51,0.00,CLR,OVC,0.00,WeatherDisplay:10.37,2013-07-30 03:34:00,
2013-07-30 13:39:00,66.6,47.9,29.56,NNW,338,2.3,2.3,51,0.00,CLR,OVC,0.00,WeatherDisplay:10.37,2013-07-30 03:39:00,
2013-07-30 13:44:00,66.4,48.2,29.56,West,270,2.3,0.0,52,0.00,CLR,OVC,0.00,WeatherDisplay:10.37,2013-07-30 03:44:00,
2013-07-30 13:49:00,66.4,48.2,29.56,NNE,22,0.0,0.0,52,0.00,CLR,OVC,0.00,WeatherDisplay:10.37,2013-07-30 03:49:00,
2013-07-30 13:54:00,66.4,49.2,29.56,NE,45,0.0,0.0,54,0.00,CLR,OVC,0.00,WeatherDisplay:10.37,2013-07-30 03:54:00,
2013-07-30 13:59:00,66.4,49.2,29.53,NNW,338,2.0,2.0,54,0.00,CLR,OVC,0.00,WeatherDisplay:10.37,2013-07-30 03:59:00,
2013-07-30 14:01:00,66.4,48.7,29.53,NNE,22,2.4,2.4,53,0.00,CLR,OVC,0.00,WeatherDisplay:10.37,2013-07-30 04:01:00,
2013-07-30 14:06:00,66.6,48.9,29.53,SSE,158,2.4,2.4,53,0.00,CLR,OVC,0.00,WeatherDisplay:10.37,2013-07-30 04:06:00,
2013-07-30 14:11:00,66.7,49.6,29.53,East,90,2.3,2.3,54,0.00,CLR,OVC,0.00,WeatherDisplay:10.37,2013-07-30 04:11:00,
2013-07-30 14:16:00,66.7,49.6,29.53,ENE,68,2.0,2.0,54,0.00,CLR,OVC,0.00,WeatherDisplay:10.37,2013-07-30 04:16:00,
2013-07-30 14:21:00,66.6,48.4,29.53,NE,45,2.4,2.4,52,0.00,CLR,OVC,0.00,WeatherDisplay:10.37,2013-07-30 04:21:00,
2013-07-30 14:26:00,66.6,48.9,29.53,NNE,22,3.5,3.5,53,0.00,CLR,OVC,0.00,WeatherDisplay:10.37,2013-07-30 04:26:00,
2013-07-30 14:31:00,66.9,49.2,29.53,NNE,22,0.0,0.0,53,0.00,CLR,OVC,0.00,WeatherDisplay:10.37,2013-07-30 04:31:00,
2013-07-30 14:36:00,67.1,49.4,29.53,SSE,158,0.0,0.0,53,0.00,CLR,OVC,0.00,WeatherDisplay:10.37,2013-07-30 04:36:00,
2013-07-30 14:41:00,67.1,48.9,29.53,WSW,248,3.5,3.5,52,0.00,CLR,OVC,0.00,WeatherDisplay:10.37,2013-07-30 04:41:00,
2013-07-30 14:46:00,67.1,48.9,29.53,East,90,3.5,3.5,52,0.00,CLR,OVC,0.00,WeatherDisplay:10.37,2013-07-30 04:46:00,
2013-07-30 14:51:00,67.1,48.9,29.53,NNE,22,2.3,2.3,52,0.00,CLR,OVC,0.00,WeatherDisplay:10.37,2013-07-30 04:51:00,
2013-07-30 14:56:00,66.9,48.2,29.53,NNE,22,2.4,2.4,51,0.00,CLR,OVC,0.00,WeatherDisplay:10.37,2013-07-30 04:56:00,
2013-07-30 15:01:00,66.7,48.0,29.53,ENE,68,3.5,3.5,51,0.00,CLR,OVC,0.00,WeatherDisplay:10.37,2013-07-30 05:01:00,
2013-07-30 15:06:00,66.6,47.9,29.53,NE,45,2.3,0.0,51,0.00,CLR,OVC,0.00,WeatherDisplay:10.37,2013-07-30 05:06:00,
2013-07-30 15:11:00,66.4,48.2,29.53,ENE,68,1.2,1.2,52,0.00,CLR,OVC,0.00,WeatherDisplay:10.37,2013-07-30 05:11:00,
2013-07-30 15:16:00,66.4,48.2,29.53,WNW,292,2.3,2.3,52,0.00,CLR,OVC,0.00,WeatherDisplay:10.37,2013-07-30 05:16:00,
2013-07-30 15:21:00,66.2,48.0,29.53,ENE,68,1.2,0.0,52,0.00,CLR,OVC,0.00,WeatherDisplay:10.37,2013-07-30 05:21:00,
2013-07-30 15:26:00,66.2,48.6,29.53,WSW,248,3.5,3.5,53,0.00,CLR,OVC,0.00,WeatherDisplay:10.37,2013-07-30 05:26:00,
2013-07-30 15:32:00,66.0,48.4,29.56,NNW,338,2.3,2.3,53,0.00,CLR,OVC,0.00,WeatherDisplay:10.37,2013-07-30 05:32:00,
2013-07-30 15:36:00,66.0,48.4,29.56,West,270,1.2,0.0,53,0.00,CLR,OVC,0.00,WeatherDisplay:10.37,2013-07-30 05:36:00,
2013-07-30 15:41:00,65.8,48.2,29.56,WNW,292,0.0,0.0,53,0.00,CLR,OVC,0.00,WeatherDisplay:10.37,2013-07-30 05:41:00,
2013-07-30 15:46:00,65.8,48.2,29.53,NNE,22,0.0,0.0,53,0.00,CLR,OVC,0.00,WeatherDisplay:10.37,2013-07-30 05:46:00,
2013-07-30 15:51:00,65.7,48.6,29.53,SSE,158,0.0,0.0,54,0.00,CLR,OVC,0.00,WeatherDisplay:10.37,2013-07-30 05:51:00,
2013-07-30 15:56:00,65.5,48.4,29.53,WNW,292,2.3,0.0,54,0.00,CLR,OVC,0.00,WeatherDisplay:10.37,2013-07-30 05:56:00,
2013-07-30 16:01:00,65.5,48.9,29.56,South,180,0.0,0.0,55,0.00,CLR,OVC,0.00,WeatherDisplay:10.37,2013-07-30 06:01:00,
2013-07-30 16:07:00,65.5,48.9,29.56,SSW,202,0.0,0.0,55,0.00,CLR,OVC,0.00,WeatherDisplay:10.37,2013-07-30 06:07:00,
2013-07-30 16:12:00,65.1,49.0,29.56,SSW,202,0.0,0.0,56,0.00,CLR,OVC,0.00,WeatherDisplay:10.37,2013-07-30 06:12:00,
2013-07-30 16:17:00,64.9,48.9,29.56,WNW,292,0.0,0.0,56,0.00,CLR,OVC,0.00,WeatherDisplay:10.37,2013-07-30 06:17:00,
2013-07-30 16:22:00,64.8,49.2,29.56,WNW,292,0.0,0.0,57,0.00,CLR,OVC,0.00,WeatherDisplay:10.37,2013-07-30 06:22:00,
2013-07-30 16:27:00,64.6,49.5,29.56,West,270,0.0,0.0,58,0.00,CLR,OVC,0.00,WeatherDisplay:10.37,2013-07-30 06:27:00,
2013-07-30 16:32:00,64.4,49.3,29.56,WNW,292,0.0,0.0,58,0.00,CLR,OVC,0.00,WeatherDisplay:10.37,2013-07-30 06:32:00,
2013-07-30 16:37:00,64.0,49.9,29.56,NNW,338,0.0,0.0,60,0.00,CLR,OVC,0.00,WeatherDisplay:10.37,2013-07-30 06:37:00,
2013-07-30 16:42:00,63.7,50.0,29.56,North,0,0.0,0.0,61,0.00,CLR,OVC,0.00,WeatherDisplay:10.37,2013-07-30 06:42:00,
2013-07-30 16:47:00,63.5,49.8,29.56,West,270,0.0,0.0,61,0.00,CLR,OVC,0.00,WeatherDisplay:10.37,2013-07-30 06:47:00,
2013-07-30 16:52:00,63.5,50.7,29.56,WNW,292,0.0,0.0,63,0.00,CLR,OVC,0.00,WeatherDisplay:10.37,2013-07-30 06:52:00,
2013-07-30 16:57:00,63.3,50.5,29.56,SE,135,0.0,0.0,63,0.00,CLR,OVC,0.00,WeatherDisplay:10.37,2013-07-30 06:57:00,
2013-07-30 17:02:00,63.3,50.5,29.53,North,0,0.0,0.0,63,0.00,CLR,OVC,0.00,WeatherDisplay:10.37,2013-07-30 07:02:00,
2013-07-30 17:07:00,63.0,50.6,29.53,NNE,22,0.0,0.0,64,0.00,CLR,OVC,0.00,WeatherDisplay:10.37,2013-07-30 07:07:00,
2013-07-30 17:12:00,62.8,50.4,29.53,NNE,22,0.0,0.0,64,0.00,CLR,OVC,0.00,WeatherDisplay:10.37,2013-07-30 07:12:00,
2013-07-30 17:17:00,62.4,50.9,29.56,SE,135,0.0,0.0,66,0.00,CLR,OVC,0.00,WeatherDisplay:10.37,2013-07-30 07:17:00,
2013-07-30 17:22:00,62.2,49.9,29.56,SW,225,0.0,0.0,64,0.00,CLR,OVC,0.00,WeatherDisplay:10.37,2013-07-30 07:22:00,
2013-07-30 17:27:00,62.2,49.9,29.56,SW,225,0.0,0.0,64,0.00,CLR,OVC,0.00,WeatherDisplay:10.37,2013-07-30 07:27:00,
2013-07-30 17:32:00,61.9,50.0,29.56,East,90,0.0,0.0,65,0.00,CLR,OVC,0.00,WeatherDisplay:10.37,2013-07-30 07:32:00,
2013-07-30 17:37:00,61.7,50.2,29.56,East,90,0.0,0.0,66,0.00,CLR,OVC,0.00,WeatherDisplay:10.37,2013-07-30 07:37:00,
2013-07-30 17:42:00,61.3,49.9,29.56,SE,135,0.0,0.0,66,0.00,CLR,OVC,0.00,WeatherDisplay:10.37,2013-07-30 07:42:00,
2013-07-30 17:47:00,61.2,49.7,29.56,North,0,0.0,0.0,66,0.00,CLR,OVC,0.00,WeatherDisplay:10.37,2013-07-30 07:47:00,
2013-07-30 17:52:00,61.0,49.5,29.56,NE,45,0.0,0.0,66,0.00,CLR,OVC,0.00,WeatherDisplay:10.37,2013-07-30 07:52:00,
2013-07-30 17:57:00,60.8,49.8,29.56,SSE,158,0.0,0.0,67,0.00,CLR,OVC,0.00,WeatherDisplay:10.37,2013-07-30 07:57:00,
2013-07-30 18:02:00,60.6,49.6,29.56,South,180,2.3,2.3,67,0.00,CLR,OVC,0.00,WeatherDisplay:10.37,2013-07-30 08:02:00,
2013-07-30 18:07:00,60.6,50.0,29.56,SW,225,0.0,0.0,68,0.00,CLR,OVC,0.00,WeatherDisplay:10.37,2013-07-30 08:07:00,
2013-07-30 18:12:00,60.4,49.8,29.56,East,90,0.0,0.0,68,0.00,CLR,OVC,0.00,WeatherDisplay:10.37,2013-07-30 08:12:00,
2013-07-30 18:17:00,60.4,49.8,29.59,East,90,0.0,0.0,68,0.00,CLR,OVC,0.00,WeatherDisplay:10.37,2013-07-30 08:17:00,
2013-07-30 18:22:00,60.3,49.3,29.59,South,180,0.0,0.0,67,0.00,CLR,OVC,0.00,WeatherDisplay:10.37,2013-07-30 08:22:00,
2013-07-30 18:27:00,60.1,49.1,29.59,North,0,0.0,0.0,67,0.00,CLR,OVC,0.00,WeatherDisplay:10.37,2013-07-30 08:27:00,
2013-07-30 18:32:00,60.1,49.5,29.59,North,0,0.0,0.0,68,0.00,CLR,OVC,0.00,WeatherDisplay:10.37,2013-07-30 08:32:00,
2013-07-30 18:37:00,59.9,49.7,29.59,North,0,0.0,0.0,69,0.00,CLR,OVC,0.00,WeatherDisplay:10.37,2013-07-30 08:37:00,
2013-07-30 18:42:00,59.7,49.5,29.59,SSE,158,0.0,0.0,69,0.00,CLR,OVC,0.00,WeatherDisplay:10.37,2013-07-30 08:42:00,
2013-07-30 18:47:00,59.5,49.4,29.59,SE,135,0.0,0.0,69,0.00,CLR,OVC,0.00,WeatherDisplay:10.37,2013-07-30 08:47:00,
2013-07-30 18:52:00,59.4,49.6,29.59,NW,315,0.0,0.0,70,0.00,CLR,OVC,0.00,WeatherDisplay:10.37,2013-07-30 08:52:00,
2013-07-30 18:57:00,59.4,49.6,29.59,SE,135,0.0,0.0,70,0.00,CLR,OVC,0.00,WeatherDisplay:10.37,2013-07-30 08:57:00,
2013-07-30 19:02:00,59.2,49.4,29.59,SSE,158,0.0,0.0,70,0.00,CLR,OVC,0.00,WeatherDisplay:10.37,2013-07-30 09:02:00,
2013-07-30 19:07:00,59.0,49.2,29.59,West,270,0.0,0.0,70,0.00,CLR,OVC,0.00,WeatherDisplay:10.37,2013-07-30 09:07:00,
2013-07-30 19:12:00,58.8,49.4,29.59,SW,225,0.0,0.0,71,0.00,CLR,OVC,0.00,WeatherDisplay:10.37,2013-07-30 09:12:00,
2013-07-30 19:17:00,58.6,48.9,29.59,West,270,0.0,0.0,70,0.00,CLR,OVC,0.00,WeatherDisplay:10.37,2013-07-30 09:17:00,
2013-07-30 19:22:00,58.5,49.1,29.59,WNW,292,0.0,0.0,71,0.00,CLR,OVC,0.00,WeatherDisplay:10.37,2013-07-30 09:22:00,
2013-07-30 19:27:00,58.5,49.1,29.59,WNW,292,0.0,0.0,71,0.00,CLR,OVC,0.00,WeatherDisplay:10.37,2013-07-30 09:27:00,
2013-07-30 19:32:00,58.3,48.9,29.62,West,270,0.0,0.0,71,0.00,CLR,OVC,0.00,WeatherDisplay:10.37,2013-07-30 09:32:00,
2013-07-30 19:37:00,58.3,48.9,29.62,North,0,2.4,2.4,71,0.00,CLR,OVC,0.00,WeatherDisplay:10.37,2013-07-30 09:37:00,
2013-07-30 19:42:00,58.5,49.5,29.62,NNW,338,2.3,2.3,72,0.00,CLR,OVC,0.00,WeatherDisplay:10.37,2013-07-30 09:42:00,
2013-07-30 19:47:00,58.5,49.5,29.59,WNW,292,0.0,1.2,72,0.00,CLR,OVC,0.00,WeatherDisplay:10.37,2013-07-30 09:47:00,
2013-07-30 19:52:00,58.5,49.1,29.59,South,180,2.3,0.0,71,0.00,CLR,OVC,0.00,WeatherDisplay:10.37,2013-07-30 09:52:00,
2013-07-30 19:57:00,58.5,49.1,29.59,WNW,292,1.6,0.0,71,0.00,CLR,OVC,0.00,WeatherDisplay:10.37,2013-07-30 09:57:00,
2013-07-30 20:02:00,58.5,49.5,29.59,SW,225,1.6,1.6,72,0.00,CLR,OVC,0.00,WeatherDisplay:10.37,2013-07-30 10:02:00,
2013-07-30 20:07:00,58.3,49.3,29.59,SSE,158,2.4,0.0,72,0.00,CLR,OVC,0.00,WeatherDisplay:10.37,2013-07-30 10:07:00,
2013-07-30 20:12:00,58.3,49.3,29.59,SSE,158,1.6,0.0,72,0.00,CLR,OVC,0.00,WeatherDisplay:10.37,2013-07-30 10:12:00,
2013-07-30 20:17:00,58.1,49.9,29.62,NNE,22,0.0,0.0,74,0.00,CLR,OVC,0.00,WeatherDisplay:10.37,2013-07-30 10:17:00,
2013-07-30 20:22:00,57.9,49.3,29.62,SW,225,0.0,0.0,73,0.00,CLR,OVC,0.00,WeatherDisplay:10.37,2013-07-30 10:22:00,
2013-07-30 20:27:00,57.9,49.3,29.62,WSW,248,0.0,0.0,73,0.00,CLR,OVC,0.00,WeatherDisplay:10.37,2013-07-30 10:27:00,
2013-07-30 20:32:00,57.7,49.1,29.62,SW,225,0.0,0.0,73,0.00,CLR,OVC,0.00,WeatherDisplay:10.37,2013-07-30 10:32:00,
2013-07-30 20:37:00,57.7,49.1,29.62,South,180,0.0,0.0,73,0.00,CLR,OVC,0.00,WeatherDisplay:10.37,2013-07-30 10:37:00,
2013-07-30 20:42:00,57.6,49.0,29.62,SSW,202,0.0,0.0,73,0.00,CLR,OVC,0.00,WeatherDisplay:10.37,2013-07-30 10:42:00,
2013-07-30 20:47:00,57.6,49.3,29.62,SW,225,0.0,0.0,74,0.00,CLR,OVC,0.00,WeatherDisplay:10.37,2013-07-30 10:47:00,
2013-07-30 20:52:00,57.6,49.7,29.62,SSW,202,0.0,0.0,75,0.00,CLR,OVC,0.00,WeatherDisplay:10.37,2013-07-30 10:52:00,
2013-07-30 20:57:00,57.4,49.2,29.62,SSW,202,0.0,0.0,74,0.00,CLR,OVC,0.00,WeatherDisplay:10.37,2013-07-30 10:57:00,
2013-07-30 21:02:00,57.4,49.2,29.62,SSW,202,0.0,0.0,74,0.00,CLR,OVC,0.00,WeatherDisplay:10.37,2013-07-30 11:02:00,
2013-07-30 21:07:00,57.2,49.0,29.62,SW,225,0.0,0.0,74,0.00,CLR,OVC,0.00,WeatherDisplay:10.37,2013-07-30 11:07:00,
2013-07-30 21:12:00,57.2,49.0,29.62,SSW,202,0.0,0.0,74,0.00,CLR,OVC,0.00,WeatherDisplay:10.37,2013-07-30 11:12:00,
2013-07-30 21:17:00,57.2,49.0,29.62,WSW,248,0.0,0.0,74,0.00,CLR,OVC,0.00,WeatherDisplay:10.37,2013-07-30 11:17:00,
2013-07-30 21:23:00,57.2,49.0,29.62,SSW,202,0.0,0.0,74,0.00,CLR,OVC,0.00,WeatherDisplay:10.37,2013-07-30 11:23:00,
2013-07-30 21:27:00,57.0,49.2,29.62,WSW,248,0.0,0.0,75,0.00,CLR,OVC,0.00,WeatherDisplay:10.37,2013-07-30 11:27:00,
2013-07-30 21:32:00,57.0,49.2,29.62,SSW,202,0.0,0.0,75,0.00,CLR,OVC,0.00,WeatherDisplay:10.37,2013-07-30 11:32:00,
2013-07-30 21:38:00,56.8,49.0,29.62,West,270,0.0,0.0,75,0.00,CLR,OVC,0.00,WeatherDisplay:10.37,2013-07-30 11:38:00,
2013-07-30 21:43:00,56.8,49.7,29.62,WSW,248,0.0,0.0,77,0.00,CLR,OVC,0.00,WeatherDisplay:10.37,2013-07-30 11:43:00,
2013-07-30 21:48:00,56.8,49.4,29.62,West,270,0.0,0.0,76,0.00,CLR,OVC,0.00,WeatherDisplay:10.37,2013-07-30 11:48:00,
2013-07-30 21:53:00,56.8,49.7,29.62,SE,135,0.0,0.0,77,0.00,CLR,OVC,0.00,WeatherDisplay:10.37,2013-07-30 11:53:00,
2013-07-30 21:58:00,56.7,49.9,29.62,West,270,0.0,0.0,78,0.00,CLR,OVC,0.00,WeatherDisplay:10.37,2013-07-30 11:58:00,
2013-07-30 22:03:00,56.7,49.9,29.62,SSE,158,0.0,0.0,78,0.00,CLR,OVC,0.00,WeatherDisplay:10.37,2013-07-30 12:03:00,
2013-07-30 22:08:00,56.7,49.9,29.62,West,270,0.0,0.0,78,0.00,CLR,OVC,0.00,WeatherDisplay:10.37,2013-07-30 12:08:00,
2013-07-30 22:13:00,56.7,50.6,29.62,North,0,0.0,0.0,80,0.00,CLR,OVC,0.00,WeatherDisplay:10.37,2013-07-30 12:13:00,
2013-07-30 22:18:00,56.5,50.4,29.62,WNW,292,0.0,0.0,80,0.00,CLR,OVC,0.00,WeatherDisplay:10.37,2013-07-30 12:18:00,
2013-07-30 22:23:00,56.3,50.5,29.62,NNE,22,0.0,0.0,81,0.00,CLR,OVC,0.00,WeatherDisplay:10.37,2013-07-30 12:23:00,
2013-07-30 22:28:00,56.3,50.2,29.62,SSE,158,0.0,0.0,80,0.00,CLR,OVC,0.00,WeatherDisplay:10.37,2013-07-30 12:28:00,
2013-07-30 22:33:00,56.1,50.0,29.65,SE,135,0.0,0.0,80,0.00,CLR,OVC,0.00,WeatherDisplay:10.37,2013-07-30 12:33:00,
2013-07-30 22:38:00,56.1,50.4,29.65,SE,135,0.0,0.0,81,0.00,CLR,OVC,0.00,WeatherDisplay:10.37,2013-07-30 12:38:00,
2013-07-30 22:43:00,55.9,50.2,29.65,WNW,292,0.0,0.0,81,0.00,CLR,OVC,0.00,WeatherDisplay:10.37,2013-07-30 12:43:00,
2013-07-30 22:48:00,55.9,50.5,29.65,WNW,292,0.0,0.0,82,0.00,CLR,OVC,0.00,WeatherDisplay:10.37,2013-07-30 12:48:00,
2013-07-30 22:53:00,55.9,50.2,29.65,West,270,0.0,0.0,81,0.00,CLR,OVC,0.00,WeatherDisplay:10.37,2013-07-30 12:53:00,
2013-07-30 22:58:00,55.9,50.2,29.65,West,270,0.0,0.0,81,0.00,CLR,OVC,0.00,WeatherDisplay:10.37,2013-07-30 12:58:00,
2013-07-30 23:03:00,55.9,50.2,29.62,West,270,0.0,0.0,81,0.00,CLR,OVC,0.00,WeatherDisplay:10.37,2013-07-30 13:03:00,
2013-07-30 23:08:00,55.8,50.3,29.62,North,0,0.0,0.0,82,0.00,CLR,OVC,0.00,WeatherDisplay:10.37,2013-07-30 13:08:00,
2013-07-30 23:13:00,55.8,50.3,29.62,WNW,292,0.0,0.0,82,0.00,CLR,OVC,0.00,WeatherDisplay:10.37,2013-07-30 13:13:00,
2013-07-30 23:18:00,55.6,50.5,29.59,NW,315,0.0,0.0,83,0.00,CLR,OVC,0.00,WeatherDisplay:10.37,2013-07-30 13:18:00,
2013-07-30 23:23:00,55.6,50.2,29.59,South,180,1.2,1.2,82,0.00,CLR,OVC,0.00,WeatherDisplay:10.37,2013-07-30 13:23:00,
2013-07-30 23:28:00,55.4,50.0,29.59,West,270,0.0,0.0,82,0.00,CLR,OVC,0.00,WeatherDisplay:10.37,2013-07-30 13:28:00,
2013-07-30 23:33:00,55.4,50.0,29.62,WSW,248,0.0,0.0,82,0.00,CLR,OVC,0.00,WeatherDisplay:10.37,2013-07-30 13:33:00,
2013-07-30 23:38:00,55.2,49.8,29.62,SSW,202,0.0,0.0,82,0.00,CLR,OVC,0.00,WeatherDisplay:10.37,2013-07-30 13:38:00,
2013-07-30 23:43:00,55.0,49.6,29.62,South,180,0.0,0.0,82,0.00,CLR,OVC,0.00,WeatherDisplay:10.37,2013-07-30 13:43:00,
2013-07-30 23:48:00,54.9,49.5,29.62,SSW,202,0.0,0.0,82,0.00,CLR,OVC,0.00,WeatherDisplay:10.37,2013-07-30 13:48:00,
2013-07-30 23:53:00,54.7,49.3,29.62,East,90,0.0,0.0,82,0.00,CLR,OVC,0.00,WeatherDisplay:10.37,2013-07-30 13:53:00,
2013-07-30 23:58:00,54.7,49.6,29.62,WSW,248,0.0,0.0,83,0.00,CLR,OVC,0.00,WeatherDisplay:10.37,2013-07-30 13:58:00,